{"data":{"norad_id":57335,"epoch":"2026-05-25T03:10:09.602976Z","epoch_age_seconds":63909,"freshness":"FRESH","line1":"1 57335U 23099H   26145.13205559 -.00000149  00000+0  41240-5 0  9994","line2":"2 57335  43.0024 177.6080 0001169 276.6627  83.4091 15.27576510157805","mean_motion":15.2757651,"eccentricity":0.0001169,"inclination_deg":43.0024,"raan_deg":177.608,"arg_perigee_deg":276.6627,"mean_anomaly_deg":83.4091,"bstar":4.124e-6,"rev_number":15780,"period_min":94.266964081557,"perigee_km":482.2574724988,"apogee_km":483.86162025134,"semimajor_km":6861.1965463751,"source":"CELESTRAK","updated_at":"2026-05-25T13:38:18.286732Z"}}